Wind_Gust
14 16 16 17 12 10 9 9 15 14 8 8 11 10 19 15 9 16 23 18 9 7 12 19 24 26 22 22 24 15 7 29 16 23 17 15 19 24 27 27 24 23 22 19 16 17 16 17 20 22 21 22 22 21 19 19 20 20 20 21 20 19 18 18 18 16 16 16 15 15 15 16 16 15 15 15 16 15 15 15 15 15 15 14 15 15 14 14 14 13 13 12 12 11 11 11 10
13 15 14 15 15 8 11 8 11 6 10 9 16 7 17 14 9 11 20 19 7 10 12 23 31 35 32 28 25 22 18 12 9 16 20 22 24 24 23 24 24 26 20 19 17 16 15 17 20 22 22 24 21 21 19 20 20 21 21 21 20 19 19 18 18 17 16 15 15 15 16 16 16 15 15 15 14 14 12 14 15 14 14 14 14 14 13 13 13 12 12 11 11 11 11 11 11
12 14 17 17 10 10 10 7 10 5 7 9 18 13 10 15 13 17 17 18 6 13 20 23 26 27 23 18 10 10 8 9 22 20 26 23 28 19 21 21 21 23 22 18 17 16 14 15 18 21 23 22 21 20 20 21 21 21 21 20 19 19 18 18 17 17 16 15 15 16 16 17 15 16 16 15 14 14 13 13 14 14 13 14 13 12 12 12 12 11 11 11 10 10 10 11 11
7 5 6 9 17 13 8 9 4 7 11 13 16 16 18 15 16 17 18 12 10 22 23 19 13 11 19 19 18 18 19 16 14 25 32 23 25 25 23 22 21 21 20 19 17 15 13 18 20 21 23 23 22 20 21 21 21 21 20 20 20 19 18 17 17 17 16 16 16 15 16 16 16 16 16 15 14 14 13 13 14 15 14 13 12 12 12 11 11 10 10 10 10 10 10 10 10
9 6 6 6 6 10 8 6 7 4 8 9 12 17 17 13 16 22 20 7 11 9 8 19 23 12 24 25 13 19 15 16 16 12 27 21 26 25 25 23 21 22 20 18 16 16 15 23 20 20 21 23 22 21 21 21 21 20 20 19 20 19 18 18 17 17 17 16 16 15 16 17 16 16 16 16 15 14 14 14 13 14 13 12 11 11 10 9 9 9 9 9 9 9 9 9 10
13 11 7 6 8 8 10 7 7 12 14 12 14 17 21 21 19 20 20 14 13 7 17 12 19 15 15 13 10 18 27 27 19 14 26 23 28 26 24 21 22 21 19 18 16 15 16 22 19 19 21 23 22 22 21 20 20 20 19 19 19 19 18 17 17 18 17 17 16 16 16 16 16 17 16 15 15 14 14 13 12 11 11 11 10 9 9 10 9 9 9 8 8 7 7 8 9
13 13 9 7 10 9 9 7 11 12 16 10 18 21 21 23 26 23 21 18 4 9 13 20 26 21 21 18 19 11 10 19 20 24 21 27 26 22 20 21 23 21 19 18 16 17 20 18 17 18 20 21 22 22 21 20 20 19 20 19 18 19 19 18 18 18 18 17 16 16 16 16 16 16 15 15 14 14 13 12 12 12 11 10 10 9 9 10 10 10 9 9 8 6 7 6 7
5 4 8 6 9 7 6 6 11 12 15 15 16 18 21 24 24 22 20 20 14 7 13 20 17 27 8 11 17 8 14 11 24 26 29 29 24 21 20 24 23 21 20 17 15 16 21 17 17 18 20 19 21 21 20 20 19 20 19 18 19 18 19 19 18 18 17 17 16 15 15 16 16 15 14 13 13 12 12 12 11 11 10 9 9 9 9 10 10 10 10 9 8 7 6 7 7
6 8 6 9 8 11 9 12 17 12 17 17 15 16 19 22 22 23 24 24 5 17 20 16 17 23 9 17 16 10 22 26 27 29 28 28 24 23 25 22 24 22 20 19 17 15 15 16 16 17 18 18 20 20 19 19 19 19 19 18 18 16 18 19 19 18 17 15 15 15 15 15 15 14 14 14 13 13 12 12 11 10 10 9 8 8 9 9 10 9 10 10 9 8 7 7 7
8 9 7 12 9 11 9 10 9 13 20 17 19 23 25 23 22 22 23 26 10 11 16 14 17 27 22 22 18 9 20 26 28 24 24 23 25 22 23 23 24 25 20 18 16 16 15 20 16 15 15 17 18 18 18 17 17 17 18 19 19 17 19 18 16 17 16 15 14 14 13 13 13 13 13 13 13 12 12 11 10 10 9 9 8 8 8 9 9 9 9 10 9 8 8 8 8
10 10 7 8 7 12 11 11 11 10 13 15 17 21 24 27 25 26 22 24 13 10 24 30 28 24 22 14 11 9 19 25 27 26 21 26 24 26 24 22 23 24 24 19 17 16 16 15 21 15 15 16 16 16 16 16 17 17 18 18 18 20 20 17 17 17 16 15 15 14 14 13 13 13 13 13 13 12 11 11 10 9 8 7 7 6 7 8 8 8 9 9 8 7 7 7 8
7 8 10 10 14 14 12 13 12 14 15 18 24 19 19 20 18 24 20 25 10 18 21 17 25 32 20 20 15 18 19 20 22 23 24 23 24 24 23 20 20 20 23 23 19 15 15 15 15 19 17 16 15 15 15 18 18 18 18 18 18 18 17 16 16 16 15 15 14 13 13 14 14 14 13 13 13 13 11 10 9 9 8 7 6 5 6 6 7 7 8 8 8 6 6 7 8
11 6 7 13 13 10 13 16 14 17 18 18 18 26 24 16 17 16 15 15 10 20 10 20 31 19 16 14 16 16 18 16 19 25 23 24 24 23 21 22 22 20 19 19 20 18 15 13 14 13 15 19 16 16 16 19 19 18 17 18 17 19 18 17 16 15 15 14 14 13 13 13 13 13 13 13 13 12 11 10 9 8 8 6 6 5 5 6 5 6 6 7 7 6 6 7 8
16 14 13 17 6 12 11 11 7 10 13 14 15 19 20 16 10 14 8 7 6 7 18 29 26 26 20 23 18 20 19 16 23 21 22 25 24 23 21 22 19 19 18 19 18 18 15 13 13 13 14 12 12 16 18 19 19 19 16 16 17 17 16 16 15 15 14 14 14 13 12 12 12 12 12 12 11 11 10 9 7 7 7 6 5 4 4 4 4 4 5 6 6 5 6 6 8
14 10 13 13 13 8 9 20 11 13 20 15 21 18 20 17 16 7 9 7 6 16 27 17 33 27 27 27 19 24 24 21 22 22 25 23 25 23 21 22 20 19 18 17 18 18 16 14 13 12 10 11 10 10 10 18 20 19 17 17 17 16 15 15 15 14 14 13 14 14 14 14 13 13 12 11 11 11 10 8 7 5 6 6 5 4 3 3 4 4 4 5 5 6 6 7 7
15 11 15 16 16 14 14 16 11 17 26 17 21 17 14 19 9 7 11 10 14 14 18 14 10 11 28 27 32 28 28 24 23 27 26 25 22 22 23 22 21 19 18 17 16 15 16 14 12 11 11 10 9 9 10 11 17 20 18 17 16 15 15 14 14 13 14 13 14 14 14 11 11 11 14 10 11 11 10 7 7 4 3 4 4 4 5 5 5 4 4 4 5 5 6 7 8
7 12 15 17 16 13 12 17 9 28 15 18 19 22 27 23 7 6 11 11 17 8 14 11 12 14 33 19 27 30 28 25 25 26 26 24 25 22 21 21 20 18 18 17 15 15 14 14 12 11 10 9 10 10 9 10 16 19 15 17 15 14 13 13 12 12 11 11 11 11 11 7 5 5 8 6 10 5 8 9 8 7 4 5 5 5 5 6 7 6 5 4 5 5 6 7 9
10 20 20 19 14 16 12 19 18 10 19 15 23 21 16 18 13 8 7 18 19 19 18 18 19 16 22 23 29 32 29 28 27 28 25 24 22 23 21 20 21 21 20 18 16 17 17 13 12 11 11 11 10 10 9 9 12 14 8 9 8 10 11 12 10 8 11 5 9 7 6 7 6 5 5 10 5 6 6 8 7 6 4 6 5 6 6 5 7 8 8 8 7 7 6 3 6
19 16 19 28 16 19 11 15 19 23 14 19 15 6 11 18 6 7 7 9 20 21 15 22 24 26 27 28 27 26 27 25 25 24 25 23 23 22 21 20 19 20 19 17 19 18 16 14 12 11 11 12 11 9 10 9 10 8 7 7 7 9 9 9 6 8 4 7 6 6 5 5 6 8 7 10 7 7 5 7 6 6 6 7 7 8 8 7 7 9 9 10 10 9 5 6 6
17 15 22 21 10 12 18 20 21 17 23 19 10 12 8 4 8 5 7 9 17 22 23 20 28 24 28 28 24 26 25 24 22 23 23 22 21 23 21 21 20 18 18 19 21 17 16 15 13 11 12 12 12 12 10 9 9 9 8 6 6 6 5 7 6 6 7 6 7 4 4 4 4 4 10 12 9 4 3 5 5 5 7 8 10 8 9 9 11 10 10 11 9 6 6 8 8
14 21 22 16 16 20 18 23 22 24 23 14 10 8 7 7 6 8 5 14 11 19 25 31 28 30 29 28 26 24 26 24 24 24 24 23 19 21 24 26 25 22 21 20 17 16 16 16 13 14 13 11 11 12 12 11 9 10 8 7 8 7 7 7 7 6 5 4 3 7 6 5 5 7 8 8 5 3 2 2 4 5 4 6 8 6 6 8 8 7 6 8 8 8 8 9 8
13 21 19 12 10 19 22 25 22 27 18 7 11 13 14 7 7 10 6 10 10 19 13 26 33 35 36 31 25 24 24 23 24 27 28 28 27 23 23 22 20 15 21 22 17 17 17 17 14 14 12 10 12 13 13 12 11 9 9 10 11 8 9 9 9 5 3 5 5 6 7 6 6 7 6 4 4 4 4 5 4 4 3 3 5 6 7 7 8 7 8 8 8 7 9 9 8
27 16 15 21 21 19 14 21 28 22 13 11 9 14 7 7 12 10 20 16 11 22 27 25 29 24 23 24 27 24 21 20 24 27 28 29 27 26 22 18 17 16 16 17 15 14 14 12 14 14 11 12 11 11 10 10 10 10 11 11 11 9 8 7 5 5 6 5 6 5 7 6 5 6 5 5 4 3 3 3 5 4 5 5 5 5 5 7 7 8 8 9 8 6 8 8 10
21 27 10 17 19 24 23 26 23 17 13 14 12 5 8 10 11 23 24 21 27 30 31 30 29 24 25 26 26 24 23 25 27 28 27 25 25 21 20 20 15 14 17 18 18 16 14 14 15 12 12 12 11 11 10 10 10 10 11 13 11 11 10 7 7 7 6 7 6 7 7 6 5 5 3 5 3 5 6 4 4 5 6 5 4 6 3 5 6 7 7 8 8 9 11 10 9
25 28 17 13 16 22 22 27 27 16 11 9 5 14 6 12 10 14 13 20 21 23 26 29 27 27 27 23 23 26 24 21 25 22 22 19 19 17 20 17 15 16 19 17 15 16 16 15 14 13 11 12 12 12 11 11 11 10 10 10 9 8 9 9 9 7 8 7 6 6 5 5 4 3 3 2 3 4 5 5 4 5 6 5 4 6 6 9 8 7 5 6 6 6 6 5 9
26 21 16 14 15 13 20 24 29 23 12 8 11 17 10 24 26 20 6 12 16 28 27 24 29 25 22 21 18 25 23 26 25 22 19 18 22 22 16 15 15 15 16 16 17 18 17 15 14 16 13 16 13 12 14 10 9 8 9 7 8 12 11 11 7 9 8 8 7 5 5 4 3 2 3 2 4 4 4 4 6 6 6 6 6 8 8 7 9 9 8 10 10 8 8 8 8
13 19 19 20 17 20 16 22 27 16 11 11 16 11 14 14 14 9 5 9 20 25 25 19 23 21 17 18 17 16 20 24 22 21 22 18 18 20 15 15 14 16 17 16 17 16 17 17 15 14 12 10 12 13 11 13 17 16 12 12 13 16 17 18 17 15 16 13 16 16 10 2 5 4 4 5 3 3 3 3 6 5 5 5 5 6 6 6 6 6 7 9 8 8 8 8 8
19 16 22 23 18 17 17 21 25 11 16 16 13 14 11 8 10 22 17 8 18 26 20 20 22 21 19 19 18 16 18 20 22 20 23 22 22 20 16 18 17 16 16 16 18 19 18 19 19 16 16 14 13 12 12 14 12 9 10 13 13 16 13 13 13 14 13 14 17 18 15 13 3 5 5 4 5 4 2 4 4 5 6 5 6 6 8 7 6 7 6 6 6 6 8 8 8
16 21 19 19 26 33 19 27 23 13 13 12 12 6 7 16 12 14 15 12 18 25 21 20 20 19 19 21 20 18 18 20 21 20 20 22 23 19 20 16 20 17 13 17 21 18 18 15 16 14 14 12 13 11 11 12 11 13 13 12 12 15 12 12 14 16 16 13 17 16 19 15 7 4 2 4 5 4 4 4 5 5 4 6 5 5 4 6 7 9 9 7 8 9 10 11 11
15 15 18 14 19 29 24 20 22 13 12 14 12 18 7 11 10 11 11 15 17 22 22 20 19 18 18 18 20 21 20 20 18 16 18 17 17 18 21 17 17 17 18 16 14 14 11 13 12 12 12 14 12 11 8 11 11 11 12 12 12 12 10 13 12 11 15 14 13 18 20 17 12 5 6 7 4 6 6 4 3 5 5 4 6 5 7 8 9 10 10 9 10 9 10 9 10
25 17 14 17 14 29 18 29 15 18 13 15 16 16 8 9 8 10 11 13 22 20 15 17 18 17 19 20 21 22 20 19 21 19 19 15 15 15 19 19 17 18 18 19 19 15 14 12 11 12 11 13 13 12 10 10 10 11 10 10 11 10 10 13 10 11 14 14 18 20 21 21 18 7 7 8 8 7 6 3 2 3 4 4 6 7 8 9 9 11 10 12 9 10 10 10 11
16 21 26 16 21 8 10 21 19 23 12 13 13 15 13 15 9 10 11 8 19 21 17 15 16 18 20 19 19 19 20 17 20 17 14 14 14 15 16 18 16 18 21 20 17 15 14 10 10 14 10 13 12 11 10 11 11 10 10 12 11 10 11 12 13 12 13 14 14 16 17 18 14 8 7 7 8 7 7 6 6 6 6 7 10 10 11 12 11 11 11 10 11 11 10 11 10
18 21 11 18 14 11 10 13 20 20 13 14 19 15 20 9 8 11 10 12 17 21 16 15 17 19 17 18 17 17 19 15 13 12 12 13 14 14 14 12 18 19 19 17 17 16 14 12 12 13 12 13 13 11 10 10 11 11 11 13 12 12 11 10 10 11 12 11 10 13 13 15 10 12 12 10 10 11 11 10 10 9 9 12 13 12 13 13 13 13 12 13 11 11 12 11 13
23 16 19 13 13 14 19 7 17 18 16 12 21 20 14 19 18 16 12 15 20 22 19 17 16 16 15 16 16 18 18 20 18 15 14 14 13 11 12 17 16 16 16 15 15 18 16 14 12 12 11 10 10 11 11 12 11 11 11 12 13 14 11 9 10 11 12 12 10 9 13 12 14 14 14 12 12 13 12 12 13 14 12 13 13 13 12 12 11 11 12 12 12 12 13 12 13
23 10 11 10 9 17 19 24 13 21 25 18 15 17 19 19 16 14 13 12 19 21 20 20 20 18 16 16 17 15 17 20 16 14 16 16 14 11 14 13 14 15 16 16 16 17 15 14 13 12 12 11 9 10 11 11 12 10 10 12 14 12 10 10 10 13 12 11 10 10 13 15 14 13 14 13 12 13 13 13 14 12 12 12 12 12 13 13 12 12 11 12 12 11 10 10 11
11 9 13 9 14 16 25 27 14 22 22 25 16 23 25 22 16 15 14 11 19 20 19 17 18 15 14 15 14 15 15 16 15 14 14 14 12 13 13 13 14 16 17 17 18 17 15 14 12 12 11 11 10 11 12 12 11 12 15 12 13 10 9 12 10 11 10 11 13 18 18 16 13 13 13 14 13 13 13 12 12 13 12 11 13 14 13 13 13 11 11 10 12 12 15 15 14
12 13 11 20 18 12 16 19 16 23 22 24 17 24 25 23 22 17 18 14 17 21 21 18 16 16 15 14 13 14 15 16 15 17 18 18 15 13 14 15 15 15 16 17 17 15 15 17 16 15 12 11 12 13 13 14 16 12 9 11 15 11 13 12 12 10 14 18 18 19 17 15 13 13 13 13 13 12 12 11 12 12 11 12 13 12 10 11 12 10 8 9 11 13 16 16 17
18 13 14 20 22 19 16 23 18 26 23 19 21 24 20 18 18 17 18 20 20 24 24 19 17 14 16 19 15 14 15 15 15 15 17 16 16 13 14 14 16 18 14 15 17 16 13 13 13 14 11 10 10 10 13 11 8 12 16 14 15 11 11 15 16 15 18 18 19 18 16 14 14 13 12 11 12 12 12 12 12 11 11 11 11 10 11 11 12 13 10 11 11 12 14 16 19
22 17 17 16 24 19 17 18 17 25 22 14 29 26 23 19 15 13 16 16 18 17 22 24 22 16 16 16 15 17 20 22 19 18 16 16 17 16 15 12 10 13 13 13 14 15 12 11 11 11 11 10 9 10 10 11 7 9 13 13 14 14 8 13 18 17 17 20 19 16 15 14 14 13 11 11 12 12 11 12 11 11 11 10 12 13 12 13 12 12 11 11 10 10 11 16 18
19 19 11 22 19 24 24 27 13 26 29 23 25 27 20 14 11 12 10 14 16 12 15 16 16 19 19 19 17 21 22 23 20 20 17 17 17 17 14 12 11 11 13 13 13 14 12 11 10 10 10 8 10 8 9 9 11 10 10 13 10 12 17 18 18 18 20 20 19 16 15 13 13 13 13 11 12 12 11 10 9 11 11 10 11 12 12 13 13 12 13 13 11 13 15 14 17
22 20 16 13 17 26 27 24 13 28 16 34 28 24 14 15 18 15 11 12 14 13 16 16 11 9 12 13 12 16 20 18 18 20 19 17 17 16 14 13 12 11 13 13 12 12 11 10 9 9 10 9 8 9 9 13 14 12 11 11 15 16 15 16 16 18 18 18 17 15 14 13 13 13 11 11 11 11 10 11 11 10 10 10 11 12 12 11 10 10 12 13 13 10 13 13 15
23 20 18 15 12 15 26 20 19 28 21 25 36 20 17 10 17 16 13 17 14 14 18 17 17 16 15 16 16 14 14 16 19 21 21 21 19 16 15 14 12 12 13 10 10 11 10 10 9 9 9 8 10 8 10 12 12 16 16 18 17 14 14 13 16 17 15 15 15 11 14 13 12 13 12 11 11 10 11 11 10 11 11 12 12 12 11 12 12 13 12 11 13 11 11 12 15
17 27 17 21 23 17 13 23 22 27 33 22 17 33 21 12 18 16 16 17 16 15 17 18 18 18 19 17 19 18 16 18 17 18 20 20 16 17 16 15 13 12 10 10 11 11 10 10 10 9 9 9 8 8 7 10 11 10 14 13 12 15 17 14 14 15 17 14 13 15 15 13 12 13 11 10 10 10 10 11 11 11 11 11 12 13 13 11 11 11 12 12 11 10 9 16 12
34 18 12 20 21 19 23 17 17 21 12 30 19 22 30 21 20 16 16 18 17 17 19 19 19 18 19 17 20 19 20 18 23 21 19 19 18 18 17 16 15 13 12 13 12 11 11 11 12 10 9 9 9 10 8 8 13 10 12 12 14 14 15 16 15 16 15 15 17 16 15 14 13 12 12 11 10 9 11 12 11 11 12 11 13 12 12 11 12 11 11 10 10 11 10 13 11
29 13 17 15 17 23 23 18 16 22 28 23 16 15 21 20 13 14 18 21 18 20 21 21 20 22 19 17 22 19 19 19 21 20 18 19 20 18 16 17 15 15 14 13 13 12 11 11 12 10 10 9 9 9 9 8 10 13 15 16 16 15 15 15 14 14 15 15 17 14 16 14 13 12 11 10 11 10 11 11 11 11 13 13 13 13 11 11 11 10 11 12 11 12 11 9 13
23 18 13 18 20 19 18 14 13 15 35 25 25 21 25 12 12 18 17 19 22 23 22 22 23 26 20 21 20 18 16 16 18 20 22 19 19 18 17 17 18 16 14 13 12 13 12 11 12 11 9 8 8 8 8 7 8 12 14 15 18 16 14 13 13 15 15 15 16 14 14 14 12 12 11 10 11 10 10 11 11 12 12 12 13 11 11 11 11 10 11 10 11 11 10 12 15
12 22 17 22 24 19 11 12 15 13 26 30 24 21 21 22 20 29 30 35 34 21 19 22 23 21 20 20 20 20 19 19 18 18 22 23 18 20 20 20 19 17 15 15 14 13 13 12 11 11 9 9 9 10 10 10 9 10 14 14 16 16 14 14 15 13 14 14 16 14 14 13 11 10 10 10 10 10 10 10 11 11 12 12 12 11 11 11 12 11 10 11 13 12 12 14 15
21 27 25 17 20 7 8 10 7 31 26 14 26 26 19 23 16 17 26 18 28 34 32 30 28 29 24 23 22 20 18 19 19 21 23 25 24 20 21 22 22 19 17 16 14 13 13 12 12 12 10 10 10 10 11 11 11 11 11 12 13 13 13 14 15 15 16 16 15 16 12 13 11 10 10 11 11 10 11 11 10 11 13 11 11 11 12 11 11 10 11 12 13 12 12 14 13
23 20 20 18 17 17 23 14 20 25 26 16 20 17 16 25 25 36 34 20 31 30 36 38 35 31 26 23 21 19 18 18 20 19 22 24 25 25 23 22 22 20 19 17 16 14 13 13 13 15 12 10 11 10 11 10 11 11 11 10 8 9 11 13 14 15 14 16 15 15 13 12 10 11 10 11 10 9 10 12 12 12 12 11 11 12 12 12 11 11 11 11 12 12 12 12 14
24 31 23 21 26 24 17 14 15 11 13 8 29 18 25 10 9 31 38 30 33 32 31 35 35 35 31 27 23 21 18 18 18 17 19 21 23 24 21 21 21 19 18 18 16 15 15 14 13 15 12 11 11 12 11 12 11 12 13 13 14 15 15 16 15 17 14 14 15 15 13 12 11 10 10 9 8 9 10 10 10 11 10 11 11 11 11 10 11 12 11 12 12 11 12 12 14
34 22 22 17 18 25 21 15 22 17 12 9 15 28 24 11 14 32 37 33 27 26 26 26 24 25 23 21 19 19 18 17 20 19 20 19 21 22 22 21 20 19 19 19 17 16 16 15 15 15 14 11 12 11 12 12 13 13 13 14 14 14 16 16 15 15 15 17 15 15 12 11 12 10 11 8 9 10 9 10 10 11 11 11 11 12 13 11 11 13 12 12 12 12 13 15 15
27 18 11 13 22 14 16 18 14 11 11 15 20 25 4 10 10 9 17 22 25 28 29 28 25 22 22 22 24 23 22 21 21 20 20 19 19 21 21 20 20 19 19 18 18 17 17 15 14 13 13 12 12 12 11 12 12 13 13 15 14 15 16 16 15 15 15 15 15 15 13 11 10 10 9 9 8 9 10 10 11 12 11 12 12 12 12 13 12 13 13 12 13 11 15 16 14
29 19 28 22 14 15 10 6 7 11 12 14 12 9 8 10 22 18 23 25 27 30 29 29 27 26 25 25 25 23 22 22 21 22 21 21 21 19 20 20 20 19 18 19 19 17 17 16 15 15 14 12 12 11 12 11 12 13 13 12 13 15 16 16 16 15 14 13 14 13 12 10 9 9 10 8 9 8 9 10 11 12 12 12 12 12 13 12 12 13 13 12 12 10 13 14 14
21 29 22 8 8 10 22 16 10 12 16 15 10 13 12 11 16 8 24 25 24 30 30 30 28 29 27 25 25 25 24 21 21 21 20 22 22 23 21 20 19 19 19 18 18 15 16 15 16 16 14 14 11 12 12 12 13 13 13 14 14 15 16 15 15 15 13 14 12 11 10 11 9 9 10 9 10 10 10 11 12 13 13 12 12 12 11 12 12 12 11 11 9 10 13 14 14
17 21 12 27 22 22 10 21 16 17 18 12 9 17 15 16 26 18 22 28 26 27 27 28 29 30 28 24 24 24 23 23 24 24 23 22 22 24 22 20 19 19 19 18 18 18 16 13 13 14 15 13 12 12 11 12 11 12 12 13 13 14 13 13 13 13 13 14 11 11 10 8 8 9 13 12 12 11 13 12 12 12 13 14 13 13 11 11 10 11 10 11 10 12 15 14 12
9 10 21 15 10 13 13 21 13 23 10 11 7 17 17 14 33 29 29 30 31 29 28 31 33 31 29 29 29 28 28 25 24 24 22 23 22 23 24 22 21 22 21 19 18 18 18 15 14 13 12 12 12 12 11 12 10 12 12 12 12 13 13 13 13 13 14 12 10 10 9 9 11 12 12 12 13 13 14 15 15 15 14 14 14 13 13 11 10 10 10 11 10 13 14 14 13
21 13 17 22 24 13 14 10 15 18 18 18 17 13 18 15 27 34 33 34 35 37 36 31 31 29 29 30 32 29 28 26 25 25 24 24 23 22 22 20 20 20 19 18 19 20 18 15 14 14 15 13 12 11 11 11 12 12 14 13 13 13 13 13 12 13 13 10 9 9 10 10 12 12 12 12 14 14 15 15 15 15 14 13 13 13 13 11 11 10 11 10 10 12 13 11 12
11 16 15 13 19 12 17 17 10 12 18 17 19 17 15 15 25 34 37 37 38 35 37 33 29 29 29 29 27 29 28 24 25 25 25 25 23 23 22 21 21 22 20 19 18 18 17 16 15 15 14 12 13 11 11 11 10 13 13 13 13 12 12 12 13 11 12 10 9 10 11 14 14 11 13 14 14 14 15 15 14 14 14 13 12 13 12 12 13 11 9 9 11 12 12 11 10
Wind_Speed
9 8 8 8 3 1 2 2 2 3 2 4 5 4 4 2 3 7 4 1 1 0 2 4 16 11 6 7 13 5 2 17 7 10 7 1 4 13 14 16 14 14 14 11 10 10 11 12 14 17 16 17 16 14 15 16 16 17 16 16 17 16 14 14 14 13 13 13 12 11 11 11 11 11 10 10 10 10 10 10 9 9 9 9 10 9 10 10 9 8 7 7 7 8 8 8 7
6 7 7 6 5 1 1 1 3 2 5 4 7 2 5 4 6 7 8 4 2 1 2 5 4 9 13 14 9 9 3 4 1 3 4 5 10 10 15 16 16 17 13 11 10 9 9 11 14 15 17 17 15 15 16 16 17 17 17 16 16 16 15 14 14 14 13 12 12 12 11 11 11 10 10 10 10 10 9 9 9 9 9 10 9 8 9 9 8 8 7 6 7 7 8 8 8
5 7 8 8 2 3 0 2 2 0 2 4 7 5 4 8 7 10 7 4 1 6 6 10 11 7 6 4 2 2 3 5 9 6 6 10 15 7 13 13 13 15 15 10 10 9 8 10 13 15 17 17 15 15 16 17 17 17 17 16 16 16 15 14 14 14 13 12 12 12 12 11 11 10 10 10 9 9 9 9 10 10 9 8 8 8 8 8 7 7 7 6 6 7 7 8 8
4 1 3 3 3 4 1 2 2 1 1 6 6 7 2 3 9 11 12 5 2 9 5 3 4 3 1 4 2 6 4 2 2 11 8 9 3 13 11 12 11 11 11 9 9 8 8 12 14 16 17 17 16 17 17 17 17 17 16 16 16 16 14 14 14 13 13 13 12 12 12 11 11 10 10 10 10 9 9 9 9 10 9 8 8 8 8 7 7 7 6 6 5 6 7 7 8
5 3 0 2 2 2 1 1 1 2 3 3 5 8 10 6 10 11 12 1 2 4 2 4 5 4 1 4 1 1 6 7 7 4 8 5 11 12 13 12 11 11 10 10 9 8 9 18 15 15 17 18 17 17 17 17 17 17 16 15 16 15 14 14 14 14 14 13 12 12 11 11 11 11 10 10 10 10 9 9 9 9 9 8 8 7 7 7 7 7 6 5 5 5 6 6 7
3 5 2 1 0 2 3 1 2 2 8 2 1 7 11 13 9 12 12 7 8 4 5 5 7 6 3 2 1 0 8 6 9 4 10 9 15 16 15 12 11 11 10 8 8 7 9 18 16 16 16 18 18 18 17 16 17 16 15 15 15 15 14 14 14 14 14 13 12 11 11 11 11 10 10 10 10 10 9 8 8 8 7 7 7 6 7 7 7 6 6 5 5 5 5 5 6
4 5 2 2 2 2 4 2 4 4 8 5 4 7 11 14 13 9 13 10 1 6 8 2 10 10 6 1 3 2 1 9 7 7 8 16 17 15 13 12 12 12 10 9 7 7 11 15 14 14 16 17 18 18 17 16 16 15 15 15 14 15 15 14 14 14 14 13 12 12 11 11 10 10 9 9 9 9 8 8 8 8 7 6 6 6 6 7 7 7 6 5 5 4 5 4 5
1 2 1 2 1 1 0 3 4 3 6 4 5 7 14 15 15 8 13 6 6 1 4 6 3 5 1 3 3 4 6 5 12 12 14 17 16 15 13 13 13 12 10 8 7 7 14 14 14 14 16 15 17 17 16 16 15 15 15 14 14 14 15 14 14 14 13 13 12 11 11 10 10 9 9 8 8 8 7 6 7 7 6 6 6 6 7 7 7 7 6 6 5 4 4 5 5
2 1 1 3 0 1 0 3 6 3 4 4 9 10 13 15 14 12 14 11 1 5 8 9 6 7 2 5 4 1 6 14 15 19 17 17 16 15 11 13 15 12 11 9 8 8 8 13 13 13 14 15 16 16 15 15 15 14 15 15 14 13 14 14 14 13 12 12 11 11 11 10 9 9 8 8 7 7 7 6 6 6 5 5 5 6 6 7 7 7 6 6 5 5 5 5 5
0 1 1 2 3 3 2 4 1 6 5 5 7 11 12 11 10 7 8 13 5 5 2 2 2 6 7 9 5 2 5 14 17 15 15 14 15 14 14 14 16 17 11 9 7 8 7 14 13 12 12 13 14 14 14 13 13 14 14 14 13 12 13 14 12 12 12 12 10 10 10 10 9 9 8 7 7 6 6 6 5 5 4 5 5 5 6 6 7 6 6 6 5 5 5 6 6
0 1 2 1 1 4 5 6 5 5 5 5 5 9 13 13 11 11 10 14 4 6 2 7 7 10 7 3 1 2 12 16 18 16 13 15 15 15 13 13 14 16 13 10 9 7 7 7 15 11 11 12 11 11 12 12 13 12 13 13 13 14 14 12 12 13 12 11 10 10 9 10 9 8 7 7 6 6 6 5 5 4 4 4 4 4 5 5 6 6 6 5 5 5 5 6 6
1 1 1 3 5 7 6 5 5 6 6 5 5 11 9 12 4 6 12 15 3 8 12 9 8 11 7 3 3 8 11 13 14 14 14 13 12 13 13 11 12 12 14 13 10 7 7 7 7 12 13 12 11 12 12 13 14 13 13 14 13 13 12 11 11 11 11 11 10 9 9 8 8 8 7 6 6 5 5 5 4 4 3 3 3 3 4 4 4 5 5 4 4 4 5 5 6
3 2 2 2 4 3 4 4 4 5 4 4 6 7 8 6 9 11 10 8 3 10 2 1 17 4 4 3 5 7 11 9 12 15 14 12 11 11 11 12 12 12 11 11 10 9 7 6 5 6 10 15 13 13 12 13 13 12 12 12 12 13 12 12 11 11 11 10 9 9 8 8 8 8 7 6 5 4 4 4 3 3 2 2 2 3 3 3 3 3 4 4 3 3 4 5 6
4 5 6 6 1 4 5 4 3 4 5 5 6 9 9 5 6 9 4 3 1 4 2 19 11 11 7 7 6 8 9 10 14 13 12 14 12 11 12 11 12 11 9 9 9 8 7 5 6 6 6 7 7 11 13 14 14 13 11 11 11 11 10 10 10 10 10 9 9 8 8 8 7 7 7 5 4 3 3 3 2 2 2 2 1 1 2 2 2 2 2 3 3 3 4 4 6
5 1 2 2 2 4 4 5 6 6 7 5 4 7 7 6 9 6 6 3 2 6 11 4 7 12 8 12 7 11 10 14 13 12 13 14 15 13 12 11 10 9 9 8 7 7 7 6 6 5 5 5 5 5 4 10 15 13 11 12 11 10 10 10 10 10 9 9 9 9 8 8 7 7 7 6 5 4 3 2 1 1 1 1 1 1 1 1 1 1 2 2 3 3 4 5 6
5 2 2 3 5 6 4 6 4 4 7 5 6 7 9 13 5 2 5 6 3 3 8 4 5 2 10 16 16 16 15 15 14 14 15 17 14 12 12 11 9 9 8 7 6 5 6 6 5 5 5 5 5 3 5 6 12 14 12 12 11 10 10 10 9 8 9 8 8 8 7 5 5 4 7 4 5 4 2 1 1 0 1 1 2 2 3 3 3 2 1 2 2 3 4 5 5
2 2 3 3 6 6 4 4 5 7 5 7 9 8 10 10 2 2 7 2 11 4 1 0 3 2 19 5 12 19 16 17 16 17 16 14 12 10 9 8 8 7 6 6 6 6 6 6 6 5 4 5 5 3 4 5 8 12 10 12 11 10 9 9 8 8 7 6 6 6 5 2 1 0 1 1 4 1 3 3 2 1 2 3 3 3 4 4 5 4 3 2 3 3 4 6 6
2 5 5 7 5 8 5 8 6 4 6 5 8 13 7 10 7 2 3 10 8 7 6 3 8 9 8 7 18 17 17 19 18 18 15 13 11 10 9 7 8 8 8 7 6 6 6 5 6 5 4 4 4 3 3 4 5 8 3 4 4 5 6 7 5 3 5 1 6 3 1 1 1 1 1 4 1 2 2 4 4 3 3 4 4 4 4 4 5 6 6 6 5 5 4 2 3
6 3 6 13 7 6 7 6 7 3 6 9 10 5 6 12 4 2 3 2 2 8 5 4 10 11 13 16 18 18 18 17 16 16 16 15 13 13 11 9 9 10 9 8 7 7 6 6 4 4 4 4 3 2 2 2 3 2 3 3 3 5 4 4 2 3 2 2 2 1 1 0 1 2 2 3 2 3 2 4 4 4 4 5 6 6 6 5 5 6 7 7 8 8 4 3 3
7 4 9 9 5 5 9 4 6 7 8 11 6 8 6 3 3 0 4 6 4 12 8 4 10 11 14 16 17 17 17 16 15 16 16 15 14 14 13 13 12 10 10 9 8 6 7 6 5 4 4 4 3 2 2 3 2 2 2 2 2 2 1 2 2 1 1 1 1 1 1 2 2 2 6 6 2 1 1 3 4 4 6 6 8 6 6 6 7 5 6 7 5 3 3 5 5
2 6 8 5 6 6 9 11 11 12 11 8 5 5 4 4 3 1 2 9 1 0 6 14 11 16 16 16 17 16 17 16 17 16 17 16 14 12 13 14 12 10 10 10 8 8 8 8 7 5 4 3 3 3 3 2 2 2 2 2 2 2 1 2 1 0 0 2 1 2 2 1 2 1 1 2 2 1 0 1 2 3 3 4 6 4 4 5 5 5 2 3 3 2 2 3 3
1 10 8 4 4 8 10 10 12 10 12 1 5 7 7 4 4 7 1 7 6 6 2 1 16 18 21 18 13 11 13 16 17 18 19 19 16 11 6 7 8 7 10 10 10 10 11 11 9 7 6 4 4 4 4 5 5 4 4 4 4 4 4 3 1 0 1 2 3 2 2 3 4 2 1 2 2 1 1 2 2 2 2 2 3 4 4 4 5 5 4 4 4 3 3 3 3
8 6 4 8 6 5 6 11 11 15 5 7 4 9 1 2 2 4 8 5 3 12 14 16 15 13 12 12 12 12 11 8 9 11 13 15 14 11 9 7 8 9 9 9 9 8 6 4 7 8 5 4 5 5 5 5 6 6 6 5 5 5 4 2 2 2 2 3 3 3 4 3 3 2 1 2 2 1 1 1 2 2 2 2 2 2 3 4 4 5 4 4 5 3 4 3 3
8 9 4 8 10 13 7 6 11 5 10 6 5 2 2 2 4 4 9 7 6 12 14 15 15 16 17 17 17 16 13 10 11 11 9 5 10 11 12 12 9 8 10 10 7 7 6 5 4 5 5 4 5 6 6 5 5 4 5 4 5 5 4 2 2 4 4 4 3 3 3 3 2 3 1 2 1 2 3 2 2 3 3 2 2 2 2 3 4 4 4 5 4 3 3 3 3
13 11 9 6 5 10 11 13 15 7 5 5 4 9 1 5 4 3 6 5 3 13 14 14 13 14 13 15 15 14 16 14 12 12 12 8 4 8 8 6 6 6 9 7 7 9 10 8 6 6 3 5 6 6 6 5 5 5 4 4 5 4 4 3 4 3 3 4 3 3 2 3 2 1 0 1 0 2 2 2 2 2 1 2 2 1 0 1 2 3 3 4 4 4 4 3 3
12 12 6 6 8 6 10 13 17 16 4 5 5 11 3 12 12 10 2 6 5 12 13 13 13 13 13 12 11 9 10 14 16 15 10 7 8 5 6 6 5 6 6 8 9 9 10 10 10 11 8 7 7 7 8 5 4 3 3 2 3 3 4 4 3 3 3 4 4 3 2 3 1 0 1 0 1 0 1 1 2 2 2 2 2 2 1 1 2 2 1 2 2 2 2 2 2
2 7 10 11 11 7 7 14 17 10 5 7 9 7 8 7 7 1 1 3 7 12 13 10 14 12 11 11 10 11 13 12 12 11 13 12 7 2 5 6 8 9 8 9 5 3 6 9 9 9 5 5 5 4 2 4 4 4 4 4 4 5 5 5 4 2 1 3 2 2 3 1 4 1 2 2 1 2 1 2 3 3 3 3 3 4 2 2 2 3 3 3 4 4 4 4 4
7 5 8 13 12 11 9 8 15 4 3 8 7 9 7 3 2 11 11 3 5 14 11 11 9 10 11 13 11 11 11 9 12 13 15 14 12 12 10 8 8 8 7 7 5 2 6 7 9 9 8 7 7 5 4 4 4 5 4 4 4 4 5 5 4 2 3 1 1 3 1 4 0 3 3 3 2 2 0 0 2 2 2 3 2 2 3 3 2 2 2 3 3 3 4 4 4
6 10 7 9 12 14 13 13 13 6 4 8 8 3 4 10 4 9 9 7 7 11 10 9 11 12 12 14 12 10 10 9 10 12 11 11 13 11 11 8 10 9 6 8 7 5 6 8 8 9 9 8 8 7 5 4 4 4 5 5 3 2 4 5 4 3 4 3 2 4 4 4 4 2 1 1 2 2 1 2 1 1 2 3 3 3 3 4 4 5 5 4 5 5 5 6 5
7 6 8 8 8 11 16 9 12 9 4 8 7 6 3 2 3 5 4 8 9 10 9 7 9 11 9 11 12 12 11 11 9 10 11 9 8 10 14 11 11 10 9 9 9 9 6 3 4 6 8 9 8 6 5 5 4 5 4 4 4 3 3 4 4 2 1 1 3 4 5 2 3 2 3 3 3 4 1 0 1 2 2 3 3 3 5 4 5 6 6 5 5 5 6 6 6
5 3 4 6 7 12 9 8 9 10 5 9 10 7 4 5 1 4 3 7 15 12 10 10 10 10 9 9 11 12 12 10 11 10 11 10 7 5 11 12 11 11 9 11 12 10 7 5 5 6 7 8 8 7 6 5 4 5 5 4 4 4 4 4 2 1 1 0 1 3 3 3 4 3 3 4 5 4 2 0 1 1 2 3 4 5 5 5 5 6 6 6 5 6 6 6 6
3 2 10 7 10 3 4 9 9 12 2 9 9 7 6 9 5 5 4 4 10 13 11 10 10 9 9 10 11 12 13 10 10 8 6 8 9 8 9 11 10 11 12 9 9 9 8 5 6 8 7 9 8 7 5 5 6 6 5 5 5 5 5 4 2 1 1 1 3 3 1 2 3 3 5 5 5 4 2 2 4 4 4 5 5 5 6 6 5 5 5 5 6 6 6 6 5
4 8 6 8 7 5 3 7 11 12 5 5 12 4 7 2 5 7 4 5 9 14 10 10 12 12 10 9 11 9 12 10 8 7 7 8 7 6 8 7 10 10 8 11 10 9 9 8 7 9 8 8 8 7 5 5 6 6 5 5 5 5 5 4 2 1 1 2 2 3 2 2 5 7 7 6 6 5 5 5 5 5 5 6 6 6 6 5 5 5 6 5 4 4 6 6 6
8 4 7 3 6 4 7 3 9 11 9 5 2 9 7 8 12 11 8 8 10 14 11 10 9 9 9 7 9 8 9 12 10 8 8 6 5 3 3 6 8 9 9 9 9 10 10 9 7 7 7 7 6 6 6 6 6 6 5 5 5 5 5 4 3 2 2 1 1 2 2 5 7 8 7 6 7 5 5 5 5 5 5 5 5 5 5 4 4 4 5 4 4 4 6 5 6
10 4 3 3 4 10 7 7 6 7 10 9 3 7 9 9 9 8 8 8 11 14 12 12 10 10 9 7 9 9 9 9 9 7 7 8 7 5 5 6 8 8 7 8 8 9 9 8 8 7 8 7 6 5 5 6 6 6 5 5 5 5 5 4 4 4 3 2 3 4 4 6 7 7 7 6 7 6 5 5 5 4 4 5 5 5 5 4 4 4 5 5 4 5 5 5 5
3 2 4 4 7 7 10 6 2 11 6 6 10 10 13 13 9 7 6 7 11 12 9 9 9 8 8 7 8 8 8 10 8 7 6 5 5 6 6 6 6 8 8 8 9 9 10 9 7 7 7 7 6 5 5 6 5 6 7 5 6 5 5 5 4 4 2 5 5 5 5 7 7 7 7 7 6 6 5 5 6 5 6 6 7 8 7 6 7 6 7 6 6 6 8 8 8
3 3 4 7 6 4 4 6 6 6 5 8 7 12 14 15 14 11 10 9 9 12 11 9 9 8 9 8 8 8 9 10 10 8 7 6 5 5 6 7 8 8 8 8 9 9 10 10 10 9 7 7 6 6 5 7 8 6 4 5 7 4 5 4 5 5 6 5 6 6 6 7 7 7 7 7 6 6 5 5 6 6 6 7 7 7 6 7 7 6 5 5 7 7 9 9 9
7 4 4 7 7 7 4 6 7 5 7 1 8 14 11 11 9 8 8 11 12 15 15 11 11 9 9 11 9 9 8 7 10 8 7 6 5 6 6 7 10 11 7 7 8 8 8 9 9 8 7 6 5 5 5 4 3 4 6 6 6 5 5 6 7 6 6 6 7 6 6 7 8 8 7 6 6 6 6 6 6 6 6 6 6 6 6 7 7 8 5 5 6 7 6 8 9
10 6 5 3 7 4 3 3 6 5 7 4 10 13 10 10 8 6 9 8 6 6 13 14 13 11 9 9 9 11 9 10 10 10 7 5 5 6 5 4 6 9 8 7 8 9 8 7 7 7 6 6 4 3 4 4 3 4 5 6 6 6 4 5 7 6 6 7 7 6 7 7 8 8 7 6 6 6 6 6 6 6 6 6 7 7 7 8 7 7 7 5 5 5 5 7 9
8 7 5 8 2 8 8 6 2 2 6 8 9 11 8 6 6 5 4 3 4 4 3 6 6 12 12 11 10 13 11 10 11 11 11 8 5 4 4 4 6 7 8 7 8 9 7 6 6 6 6 5 4 2 2 3 5 5 5 7 6 7 7 7 7 6 6 8 8 6 7 7 8 7 7 6 6 7 6 6 5 6 6 5 6 7 7 7 7 7 7 6 3 5 5 6 7
12 10 6 5 5 7 7 4 4 5 6 15 10 10 6 8 9 6 4 3 7 5 6 4 3 4 4 6 6 10 12 11 11 11 12 11 9 8 7 6 6 7 7 7 7 7 5 6 5 6 6 5 5 5 4 5 7 7 6 7 9 9 7 6 6 5 5 6 7 7 6 6 7 7 6 6 6 6 6 6 6 6 6 6 6 7 7 6 6 6 6 7 7 4 5 4 7
10 11 10 7 4 4 6 4 9 3 2 5 20 3 3 4 11 9 7 5 7 6 8 7 6 8 9 9 9 9 9 10 12 13 14 14 12 10 8 8 6 6 7 6 6 7 6 6 6 6 5 5 6 5 5 5 7 8 9 9 9 7 6 5 5 5 5 6 7 5 7 6 6 6 6 6 6 6 6 6 5 6 6 7 6 6 6 7 7 8 6 5 7 6 4 6 6
8 7 9 8 7 5 2 3 8 5 9 9 4 13 4 4 10 9 9 9 10 7 9 9 7 10 11 10 10 10 11 12 11 13 13 12 11 9 9 7 6 7 6 6 7 7 7 6 6 6 5 5 5 5 5 5 5 5 8 8 7 7 7 4 4 3 5 5 6 7 7 6 7 7 7 6 6 6 5 5 5 6 6 6 6 7 7 7 7 6 6 6 6 5 5 8 7
12 3 7 8 9 8 5 4 6 4 1 11 10 1 10 6 7 9 10 12 10 11 11 10 9 12 12 11 11 11 10 11 13 13 12 12 12 12 11 9 7 7 6 7 7 7 7 7 8 6 5 6 5 6 5 4 6 6 7 7 6 6 7 8 6 5 5 5 7 7 7 7 7 7 7 7 6 5 5 5 6 6 6 6 7 7 7 6 7 6 6 5 5 5 5 7 6
5 2 5 5 7 10 5 4 5 2 7 6 8 6 4 4 4 6 9 14 12 14 14 13 12 13 11 11 14 12 12 12 12 11 10 12 12 10 10 10 8 8 8 8 7 6 6 7 8 6 6 6 5 6 6 4 4 7 8 8 8 6 8 7 6 5 6 5 8 7 8 8 8 7 7 6 6 5 5 5 6 6 7 7 7 7 7 7 7 6 6 6 6 6 6 5 7
7 3 2 3 3 4 5 6 6 2 6 8 13 10 6 3 3 9 8 10 12 12 13 12 13 15 11 13 13 12 11 8 9 9 11 12 12 11 9 10 9 8 8 9 8 7 5 7 7 7 6 5 5 6 5 5 6 7 8 8 10 8 7 7 6 7 6 6 9 7 7 7 7 6 6 5 5 5 5 5 6 7 7 7 7 7 7 7 6 6 6 5 6 7 6 7 8
3 2 5 6 3 2 1 5 4 4 7 12 14 12 9 5 9 14 14 15 19 11 9 10 12 13 12 13 12 12 11 10 10 9 10 10 10 11 11 11 10 10 9 9 8 8 7 6 7 7 6 5 5 6 6 6 5 6 8 8 9 10 9 8 8 7 6 7 8 7 7 7 6 6 5 5 5 5 5 5 6 6 7 6 7 7 6 6 5 6 6 6 7 7 7 8 9
7 4 5 4 8 3 1 1 2 4 8 8 17 16 10 8 6 9 13 8 15 18 19 19 19 19 14 14 12 12 12 11 11 10 11 11 11 11 11 11 11 10 10 10 8 8 8 7 7 8 6 6 6 6 6 6 5 6 6 7 8 8 9 7 8 8 8 9 8 8 6 7 6 6 6 6 6 5 5 6 6 7 7 7 7 6 6 6 5 6 6 6 6 7 7 8 7
10 5 4 8 3 3 3 3 4 10 8 6 12 9 5 11 8 19 22 13 18 18 19 23 23 20 17 15 13 11 11 11 12 10 9 10 11 11 12 12 11 11 10 10 10 8 8 8 9 10 7 6 7 6 7 6 6 6 6 6 5 5 5 7 7 8 7 8 8 7 7 7 6 7 6 6 5 5 5 7 7 7 7 6 6 6 5 6 5 6 6 6 7 7 7 7 8
13 12 8 8 6 4 4 5 2 2 5 3 15 11 8 2 3 15 23 19 21 21 18 20 22 22 20 17 13 11 11 11 10 10 10 9 10 10 12 12 11 10 11 10 10 9 9 8 8 10 8 7 7 8 7 7 6 5 4 5 5 6 6 7 7 8 7 7 7 7 7 6 6 6 6 6 4 5 6 5 6 6 5 5 5 5 5 5 5 6 6 7 6 6 7 8 9
15 8 8 7 4 4 5 3 7 7 5 3 10 9 5 4 4 10 22 21 17 16 14 13 13 14 14 13 11 11 11 10 10 11 12 11 11 11 11 12 11 11 12 11 9 9 10 9 9 10 9 6 8 8 7 8 6 6 6 6 6 6 7 7 7 7 8 9 7 8 6 6 7 6 6 5 5 6 6 6 6 6 6 6 5 5 6 6 6 6 6 6 6 6 8 9 9
8 3 6 5 8 6 3 7 6 3 3 5 6 4 1 3 3 2 6 8 8 10 11 12 12 12 13 13 13 12 11 11 9 12 12 12 12 11 11 10 11 11 13 11 11 10 10 9 9 9 9 7 7 8 7 8 7 6 7 7 7 8 8 8 7 7 7 7 7 8 7 6 6 6 5 5 5 6 6 6 6 6 5 6 5 5 6 6 6 7 6 7 7 5 9 10 8
6 8 11 9 7 7 2 1 0 2 6 4 1 3 1 1 9 5 12 13 11 11 12 12 12 13 14 13 12 13 12 11 10 12 12 13 13 11 11 11 11 11 11 12 12 11 11 10 10 9 8 6 8 7 8 7 7 8 7 8 8 8 9 9 9 9 8 7 7 7 7 6 5 6 6 5 5 5 6 6 6 6 6 5 5 5 6 6 6 6 7 7 7 6 8 9 8
5 9 10 2 2 5 6 5 2 1 5 2 2 7 5 2 1 1 11 12 12 13 15 14 13 14 14 13 13 14 14 11 12 12 12 13 14 14 12 11 12 12 12 12 12 10 10 9 10 11 9 9 7 8 8 8 8 8 8 8 8 8 9 9 9 9 7 8 6 6 6 7 6 5 5 5 6 6 6 6 6 6 6 5 5 5 5 6 6 6 6 6 5 6 8 7 7
7 10 6 9 6 9 2 4 4 3 4 1 0 5 4 5 8 7 12 15 14 14 13 13 14 14 14 14 15 15 13 12 12 13 13 13 13 14 13 13 12 12 11 11 11 11 10 9 8 9 10 8 8 7 7 6 7 6 7 8 9 8 8 8 7 7 7 8 7 6 6 5 5 6 7 7 7 7 6 6 6 6 6 6 6 5 5 5 5 6 6 7 6 7 8 8 6
5 3 8 7 3 4 3 5 4 7 3 4 1 0 3 4 11 17 18 17 17 17 15 19 20 19 16 15 16 16 14 14 14 13 13 13 13 15 15 14 14 14 13 12 12 11 12 10 9 8 7 7 8 8 7 7 6 7 7 7 7 8 8 8 7 8 8 7 6 6 6 6 7 7 7 7 7 7 6 6 5 6 6 6 6 6 6 5 6 6 6 7 6 8 8 7 6
8 4 5 6 5 2 5 2 5 6 4 4 5 1 7 6 10 18 19 19 20 22 22 18 17 16 16 17 18 16 15 15 15 14 13 13 14 13 14 13 12 11 11 11 11 12 11 9 9 9 10 8 8 7 7 7 7 7 9 9 8 8 8 7 8 8 8 7 6 6 6 6 7 7 7 7 7 7 6 6 6 6 6 6 7 7 6 6 6 6 6 6 6 7 8 6 6
5 7 6 7 9 4 5 6 1 3 6 4 6 5 6 6 8 14 19 19 21 23 24 20 18 18 17 16 17 17 15 15 15 14 13 13 13 13 13 13 12 12 11 12 11 11 11 10 9 9 8 8 8 6 7 7 6 7 9 8 8 7 7 7 8 7 7 6 6 6 7 8 9 6 8 8 7 5 5 6 6 5 6 6 7 7 6 7 7 6 5 5 6 7 7 6 5
Wind_Direction
335 336 318 316 311 139 64 8 42 308 39 288 306 333 270 275 306 308 318 353 89 272 352 27 121 140 164 190 174 156 168 148 190 140 217 215 123 132 128 137 140 135 138 144 150 150 148 151 150 144 141 138 135 128 123 120 118 115 115 112 108 104 104 105 105 104 103 102 100 99 100 100 99 103 106 106 108 110 111 109 110 111 102 96 95 93 88 86 81 74 69 62 56 57 59 65 68
324 328 313 314 311 77 335 96 98 350 32 4 273 314 252 309 359 298 314 5 306 103 287 105 79 69 74 89 100 108 27 353 117 116 72 112 109 117 134 142 145 138 141 145 146 142 146 150 149 146 142 138 134 129 126 122 119 116 116 113 109 107 107 107 106 105 105 103 104 104 103 103 103 105 107 105 105 109 113 115 113 108 103 98 92 89 88 83 78 75 68 63 53 53 58 62 67
325 346 336 346 16 60 326 41 332 72 47 306 282 249 312 335 307 301 303 335 59 127 117 78 82 62 88 50 67 76 241 50 87 101 102 139 123 158 143 140 141 137 138 139 140 141 143 149 149 146 142 139 134 130 128 124 121 120 118 114 111 111 110 109 108 108 107 106 106 107 107 107 107 107 107 108 107 109 111 109 106 103 100 100 96 91 82 78 74 68 64 58 50 48 54 59 62
321 352 37 23 338 26 63 22 104 138 232 234 287 282 268 281 291 290 291 314 187 139 125 121 66 265 84 66 94 78 82 137 113 132 133 170 161 141 139 133 131 128 127 132 138 140 141 148 148 147 143 139 135 134 130 126 124 123 120 116 114 114 113 112 113 112 110 111 110 110 112 111 109 108 106 107 103 98 100 106 109 103 94 87 80 75 71 65 61 54 53 57 46 40 49 54 55
349 307 132 93 103 1 73 178 165 104 264 216 249 283 290 259 274 288 290 301 275 244 130 136 104 356 68 123 209 124 207 94 125 137 123 105 126 134 132 132 129 125 125 131 133 136 143 147 149 147 145 142 138 135 132 128 126 124 121 118 117 117 117 116 116 116 115 113 113 113 114 113 114 113 110 106 105 102 98 96 93 90 83 83 79 76 69 62 53 48 41 35 38 38 37 42 48
336 24 9 85 96 194 50 34 319 224 228 172 266 270 280 281 277 285 298 312 252 237 168 151 151 160 53 325 322 172 133 164 155 116 131 143 138 136 134 133 126 122 123 125 134 138 145 148 147 148 147 143 139 136 132 130 127 124 121 120 120 120 120 120 119 118 116 114 114 113 112 113 113 113 112 108 107 104 104 102 100 97 94 92 89 85 76 65 58 48 44 30 26 18 23 24 33
346 10 354 23 355 61 165 159 223 225 268 172 253 273 277 288 286 303 296 310 291 72 342 96 104 103 97 188 40 17 34 111 117 149 153 141 137 137 137 128 121 119 123 128 131 137 144 142 144 147 146 143 138 136 133 130 129 125 123 123 123 123 123 122 121 120 119 118 116 116 115 114 114 114 113 109 106 104 99 93 85 83 81 79 78 78 74 68 60 55 53 44 29 8 354 10 18
230 89 306 95 276 61 231 194 220 170 268 194 232 264 278 281 286 293 292 297 309 41 118 133 210 98 245 347 140 314 21 64 116 121 127 134 139 136 129 125 118 120 125 129 133 138 141 137 143 144 143 140 137 135 132 131 129 126 126 126 126 126 125 122 122 122 122 121 118 116 115 114 115 115 115 116 112 106 103 100 94 90 88 85 82 79 73 67 59 57 59 54 40 23 1 3 6
355 87 329 73 248 12 60 193 225 245 277 291 277 260 267 270 279 285 293 288 4 151 172 183 190 97 212 71 53 45 77 112 119 126 135 136 135 130 126 128 124 126 129 133 136 133 129 141 142 142 141 138 136 133 131 130 128 129 128 128 126 125 126 125 125 124 123 122 121 119 118 116 114 111 106 106 108 105 105 102 100 96 89 84 81 79 76 71 66 62 60 52 42 27 15 8 3
24 106 262 159 132 229 224 289 249 237 233 233 244 274 278 278 282 272 270 290 247 196 199 66 21 109 119 94 104 51 122 124 124 124 136 133 128 126 127 130 129 129 130 129 127 125 135 143 141 139 137 136 134 132 129 127 130 130 129 128 126 127 128 127 126 127 126 126 123 124 123 121 120 120 119 121 122 120 115 109 104 98 89 81 82 81 78 74 70 65 61 57 43 26 18 7 5
351 354 157 116 173 228 206 257 242 292 269 263 276 264 263 271 277 293 290 281 191 167 168 114 56 116 111 84 60 109 137 133 132 138 135 130 130 130 124 126 128 129 129 127 127 136 138 138 139 134 134 131 127 123 120 124 126 125 126 126 129 130 130 129 130 131 129 129 129 130 129 130 132 134 134 135 133 129 122 118 115 110 100 93 82 78 80 76 73 70 66 61 46 28 12 359 355
41 185 153 161 199 186 218 207 236 253 270 282 274 266 268 276 316 300 289 279 235 179 164 162 163 129 79 123 129 144 142 138 132 129 131 130 126 122 121 122 123 126 128 130 132 130 130 136 132 136 133 125 123 119 120 126 129 127 130 131 130 130 131 131 133 131 133 133 133 135 136 137 135 135 138 141 138 132 125 124 121 115 116 102 96 91 84 81 71 71 65 59 52 31 5 352 346
158 152 107 117 214 186 211 209 241 244 270 256 247 267 265 284 277 273 269 267 186 159 227 95 135 115 112 151 126 142 151 138 127 132 131 126 116 111 109 112 115 118 122 127 128 128 124 119 121 113 129 127 121 121 122 125 126 128 130 131 132 134 136 138 137 138 136 137 137 139 139 137 140 144 145 147 142 138 134 129 126 121 115 116 104 95 81 81 75 67 64 56 54 28 355 336 328
164 186 140 228 192 184 177 214 211 234 259 250 259 263 275 271 256 231 201 334 129 185 180 140 138 114 95 108 147 169 161 136 134 131 125 115 110 107 106 108 111 115 119 121 120 119 116 105 102 109 113 110 118 122 125 131 133 131 133 134 137 140 141 141 141 140 138 139 141 143 146 149 150 148 150 149 156 151 148 149 144 133 115 103 86 85 91 72 80 53 49 47 33 15 350 335 329
200 194 105 170 235 168 209 205 190 212 252 235 249 269 277 254 267 264 194 148 356 120 114 68 158 108 199 160 175 183 160 139 133 124 116 107 105 103 101 104 107 109 107 102 102 109 104 100 90 82 90 89 97 108 121 138 138 136 139 142 144 144 146 146 144 140 142 145 152 152 153 154 156 157 155 160 169 178 175 177 168 172 123 97 39 20 17 10 3 48 6 29 10 354 339 334 318
192 132 158 188 219 180 259 198 189 213 257 236 250 258 283 272 251 246 246 152 114 124 137 157 240 199 174 178 177 159 145 133 129 121 112 107 102 99 102 103 103 100 99 100 95 85 98 97 88 87 82 89 99 109 131 141 143 145 147 148 149 151 148 145 142 145 151 154 153 154 154 156 160 164 167 166 174 187 212 220 231 291 331 25 12 351 352 351 338 325 12 345 338 325 321 322 316
136 144 240 191 240 190 220 198 174 234 235 256 265 274 260 269 272 204 12 57 127 161 252 260 203 82 168 182 129 136 131 128 127 119 112 110 108 105 102 101 103 100 106 102 103 101 96 99 96 95 97 110 115 121 139 144 154 151 153 154 153 151 148 142 144 153 154 156 153 157 151 120 123 200 175 189 177 182 234 265 268 284 335 338 356 349 341 334 326 318 298 274 284 281 298 302 308
156 202 199 232 190 206 184 204 192 201 234 255 260 250 256 283 272 233 68 37 69 56 54 30 39 49 94 99 131 124 124 131 132 125 120 115 115 114 111 117 127 131 131 126 111 115 113 106 107 107 111 124 133 141 147 156 156 151 136 147 145 146 144 145 150 154 159 138 160 142 102 139 156 216 255 206 174 215 235 249 276 305 315 327 326 326 331 330 322 316 312 301 282 272 270 294 307
192 192 182 227 177 213 172 204 217 208 228 236 249 286 233 235 167 233 105 210 115 74 42 64 79 82 93 115 127 124 130 130 129 121 118 116 119 123 132 141 145 144 140 131 126 123 118 115 110 118 130 142 145 144 137 131 128 115 117 120 143 145 157 150 156 169 109 148 104 100 162 268 167 242 230 240 191 212 226 244 262 289 308 310 318 316 317 317 312 304 304 304 297 291 295 288 280
223 172 218 224 191 212 226 208 234 228 243 253 281 276 227 251 183 239 174 172 138 127 122 67 111 117 122 131 133 130 131 128 121 117 115 118 128 139 149 151 154 152 137 131 129 123 125 124 133 142 152 156 137 132 88 97 98 93 113 128 132 145 132 138 189 179 131 103 85 177 222 238 225 209 246 246 225 148 269 276 271 292 304 315 315 318 318 316 311 305 295 293 306 328 334 324 319
226 198 224 206 204 207 224 222 231 244 244 252 280 289 294 257 206 206 159 118 207 340 187 150 159 139 137 142 141 135 133 125 124 122 125 135 148 154 155 151 150 140 127 125 129 139 143 145 144 154 156 154 139 130 127 127 120 131 155 149 143 154 153 161 211 331 62 119 158 175 165 115 87 81 59 60 57 31 358 342 330 325 324 311 310 308 314 305 313 303 287 300 292 277 274 269 273
294 224 222 189 193 221 226 221 228 231 242 334 273 285 257 318 22 0 50 154 197 195 86 60 142 144 146 146 134 114 121 126 133 141 148 147 143 140 113 72 53 101 125 134 149 153 157 155 152 152 157 155 149 151 164 173 163 171 179 179 177 190 187 187 139 188 158 135 138 156 123 103 103 102 67 54 46 39 58 7 323 322 343 322 341 345 332 321 314 309 317 306 284 259 256 256 253
236 257 220 215 212 203 223 226 231 233 240 241 236 236 174 45 86 8 47 35 176 125 122 124 125 118 101 91 86 68 57 66 117 132 138 136 134 125 105 110 121 126 139 148 153 147 132 119 140 135 139 148 160 173 180 181 181 188 186 188 180 192 192 143 146 166 142 134 165 166 112 98 94 100 78 72 50 12 17 330 328 355 1 337 342 3 329 317 320 322 316 299 293 286 277 257 252
232 241 225 232 214 228 237 241 232 208 184 216 257 236 88 150 70 19 63 350 84 109 118 117 116 118 119 108 100 98 85 53 34 15 6 75 126 129 136 136 141 142 137 146 130 125 117 143 151 123 126 167 182 186 184 193 195 193 205 194 189 192 163 166 165 147 157 159 137 96 93 94 85 42 29 22 353 10 4 331 351 5 356 320 316 338 306 311 316 318 322 319 317 307 297 295 283
224 239 227 246 233 230 234 248 256 217 217 246 296 295 272 108 110 73 40 25 8 104 104 104 108 109 106 104 106 109 107 94 69 35 38 19 20 100 104 105 119 123 127 129 138 145 159 153 142 128 161 202 191 183 191 198 190 198 210 203 187 187 161 163 155 156 162 123 104 90 90 88 51 78 263 229 356 5 9 351 341 328 320 319 313 301 260 294 306 306 305 297 303 305 313 307 303
228 228 233 239 240 231 227 235 250 248 209 182 233 254 109 118 102 56 44 100 104 111 107 119 119 115 112 116 114 97 95 111 116 117 110 61 3 47 99 114 125 129 143 146 159 168 155 150 154 162 186 197 196 189 198 179 158 137 147 137 159 125 123 125 131 136 95 65 44 48 99 134 166 169 232 175 127 312 359 318 338 310 351 316 318 340 324 353 310 264 237 244 255 259 265 280 304
146 224 231 235 241 240 225 225 236 240 185 175 202 198 161 186 117 202 91 136 131 115 118 126 131 128 108 97 92 92 90 99 101 107 108 120 115 229 155 151 151 156 155 151 152 172 163 154 155 147 169 179 182 182 143 127 124 124 121 115 109 119 119 111 85 58 36 77 118 61 313 171 149 139 167 173 116 106 42 349 324 320 346 339 342 329 319 333 312 308 324 339 353 353 344 331 347
265 215 225 242 247 243 244 221 234 196 216 182 176 209 176 337 57 155 172 157 153 128 134 132 117 98 96 98 99 102 99 111 123 127 134 146 160 168 175 160 150 152 142 141 148 190 161 151 149 157 163 158 147 128 124 120 122 127 119 101 98 121 124 108 105 105 83 150 187 106 344 336 156 140 159 161 139 105 92 36 330 313 320 315 311 296 324 347 340 323 330 7 7 8 351 357 352
245 237 249 242 242 247 237 236 239 213 236 178 177 134 6 344 101 134 147 145 147 137 130 115 105 107 110 111 111 113 121 132 138 138 152 163 166 168 153 149 152 146 146 138 149 158 167 170 146 139 140 129 124 125 120 119 122 120 109 101 89 86 106 110 113 128 165 184 100 79 49 347 300 121 104 117 119 116 85 38 332 295 316 305 319 317 328 349 10 10 8 359 10 6 7 357 354
264 225 220 247 252 246 238 227 233 222 216 169 135 211 302 16 79 114 149 142 127 116 111 104 104 111 117 120 120 124 135 145 155 151 155 168 176 161 148 159 160 154 152 153 161 162 163 153 130 119 120 111 113 114 118 122 126 112 93 85 94 97 102 104 111 139 161 142 123 132 127 97 7 32 116 102 106 100 108 225 335 327 323 310 319 323 360 3 22 28 11 12 4 9 3 353 2
250 244 170 208 211 237 232 209 217 224 186 170 163 209 211 173 236 168 147 160 137 126 121 119 119 120 123 125 128 132 144 158 155 164 168 152 147 162 150 161 161 156 148 163 162 145 137 132 122 107 111 108 113 117 126 128 118 105 102 100 100 104 85 79 75 110 118 21 42 36 46 81 57 30 50 82 104 124 146 265 291 312 308 321 4 21 30 22 30 35 22 21 4 12 7 12 10
272 192 223 215 205 275 232 216 205 206 239 167 148 208 176 182 195 172 168 173 135 119 125 127 128 131 129 129 129 129 138 156 160 157 155 148 154 160 163 164 158 158 162 138 129 137 123 113 118 114 111 111 115 123 129 125 120 118 118 114 102 95 96 105 116 141 144 146 101 101 76 79 81 70 68 69 70 64 49 12 351 4 21 48 51 38 37 30 20 35 28 31 25 16 13 9 6
229 206 231 217 184 239 234 222 211 201 152 176 174 177 119 136 191 172 180 149 140 122 125 125 133 136 131 130 134 130 138 149 143 155 155 154 154 163 172 173 166 157 122 138 137 124 116 115 116 113 116 118 120 124 127 123 121 116 117 115 111 111 114 109 109 129 95 87 102 106 85 54 70 76 76 75 81 68 60 61 41 48 54 60 52 41 40 26 28 29 27 27 40 28 19 3 357
257 196 211 204 175 180 214 276 222 202 170 201 110 128 189 156 170 168 156 158 140 127 133 136 139 139 139 139 146 148 143 145 151 157 156 139 130 135 182 172 143 126 137 132 136 129 124 120 116 115 116 112 120 134 139 131 120 114 109 106 108 108 105 100 109 100 77 41 61 87 86 73 66 62 65 70 72 68 62 59 54 49 56 60 59 50 41 27 35 35 33 26 27 41 25 11 349
205 194 152 222 178 178 197 177 227 162 190 181 104 121 152 145 153 162 153 157 145 141 148 151 149 147 147 150 151 153 147 143 146 149 144 135 135 149 144 126 126 126 121 123 122 121 116 117 117 120 118 118 121 129 132 115 109 96 86 92 91 88 85 83 83 83 75 52 45 66 69 68 64 61 60 59 69 62 59 57 58 51 61 63 60 53 39 30 36 31 40 19 24 43 34 9 350
152 150 176 196 184 208 199 204 238 173 173 162 148 141 138 149 150 141 142 156 148 141 140 145 148 148 150 151 153 157 149 140 138 138 133 127 126 133 128 126 122 125 127 132 134 130 123 122 123 122 124 127 126 122 124 115 111 114 116 102 86 77 84 92 70 72 73 68 61 58 61 66 65 63 59 57 63 64 57 51 51 42 44 49 46 41 29 25 20 20 22 23 18 26 30 11 357
263 192 187 211 204 230 214 206 204 166 139 184 154 137 151 160 166 163 155 147 146 147 156 155 159 155 156 154 154 153 146 139 137 128 131 126 126 130 130 131 129 126 131 141 142 139 138 135 135 134 137 135 138 141 142 141 131 115 98 109 113 111 107 99 83 69 69 65 63 54 52 58 58 58 55 55 52 57 56 46 43 37 39 47 49 44 36 34 27 26 16 25 26 32 24 9 358
268 260 223 226 197 213 218 200 198 175 152 29 136 138 154 161 161 158 148 149 165 164 164 166 164 162 156 157 149 144 138 121 121 124 134 128 130 134 137 140 139 133 143 147 141 138 131 131 130 133 132 136 145 154 148 139 117 128 133 129 121 116 109 101 91 77 76 71 64 58 55 55 54 51 49 51 53 52 49 47 45 46 45 54 59 52 45 40 34 30 20 31 26 45 39 9 2
259 243 239 249 231 190 270 245 201 186 102 168 142 139 153 160 158 149 167 172 175 179 171 168 159 156 156 163 149 142 144 143 132 133 137 134 138 143 144 147 140 138 145 145 138 130 130 127 129 130 133 139 147 155 142 137 106 104 117 123 125 110 74 84 89 87 85 78 65 59 54 52 54 52 46 45 48 46 49 54 52 53 52 55 59 51 45 43 36 35 30 37 25 32 48 21 19
244 248 220 223 226 170 219 238 173 196 136 165 157 130 141 116 107 146 185 174 151 150 152 170 168 157 161 165 158 149 150 149 145 148 152 156 157 154 149 142 139 135 135 137 140 135 133 128 128 124 130 125 128 127 111 97 109 102 88 113 91 90 103 94 87 84 81 79 70 64 57 57 56 55 49 48 50 47 49 56 57 56 56 56 68 66 53 48 39 34 33 32 42 54 27 24 22
236 228 218 217 234 213 177 216 78 46 19 125 105 107 123 147 142 171 200 142 140 152 125 142 96 94 132 135 138 156 153 155 147 149 155 161 166 171 163 153 148 141 141 143 139 136 135 134 128 127 125 124 129 127 120 120 111 103 104 90 95 94 86 90 89 76 79 86 83 63 57 57 60 58 50 51 53 51 49 51 58 59 61 55 64 67 62 54 51 46 42 48 42 70 48 31 21
243 239 208 219 227 260 211 118 96 34 74 181 128 29 210 191 178 175 162 152 156 156 152 165 138 134 152 161 153 153 155 159 155 159 167 171 170 164 153 151 150 139 139 137 126 123 124 117 113 109 107 112 124 122 125 129 135 135 129 126 124 117 114 114 113 122 108 94 89 85 66 59 63 62 55 52 51 52 50 48 55 61 59 57 63 71 65 56 48 49 42 51 51 37 76 55 37
222 239 180 212 234 238 259 127 122 144 166 222 235 152 227 215 202 178 168 173 155 158 175 167 149 154 165 171 169 161 153 147 150 164 172 163 158 147 147 150 146 140 135 124 118 117 116 113 112 112 115 115 111 113 116 123 124 136 128 127 124 130 125 100 96 104 113 107 99 87 81 67 60 62 52 50 49 52 52 48 55 59 61 63 66 68 64 59 55 54 48 52 51 48 41 65 46
231 175 146 191 221 237 221 139 185 211 91 175 204 183 154 192 224 187 176 167 152 169 180 173 164 168 170 172 175 168 158 149 161 165 171 159 153 153 154 151 148 143 130 123 116 117 122 119 117 119 119 118 112 112 108 127 137 129 114 112 117 120 120 126 133 129 114 112 97 89 84 72 61 56 56 49 43 49 54 49 53 55 59 63 68 67 66 58 57 51 52 52 52 51 55 64 58
228 155 169 208 207 226 220 157 221 205 126 186 224 108 87 205 177 161 171 170 166 183 176 176 175 177 172 163 174 172 169 174 166 162 167 153 151 151 151 153 151 137 131 127 125 121 114 120 119 118 113 109 111 114 121 130 138 132 126 127 123 123 127 131 133 125 117 110 96 84 80 75 64 55 53 55 49 45 50 55 53 57 60 61 66 64 61 58 59 59 51 47 47 44 48 58 63
234 201 170 220 226 221 184 181 205 201 140 213 197 178 138 192 198 172 191 186 182 187 176 174 180 180 175 167 175 170 171 168 163 169 158 159 158 155 155 146 144 135 126 122 120 122 118 117 120 119 115 115 122 123 126 133 141 135 131 136 134 137 133 132 134 130 119 107 95 89 84 79 72 62 52 53 53 46 50 50 55 57 60 66 67 67 64 57 53 60 60 60 55 57 45 55 66
318 187 237 267 292 273 174 169 151 98 213 205 200 198 144 175 199 187 172 198 189 165 163 175 182 187 182 181 170 173 171 170 170 168 156 154 151 148 148 147 137 130 128 125 126 128 126 119 122 119 119 118 125 135 134 137 140 137 134 140 141 143 144 140 134 125 119 105 100 93 89 87 80 73 66 54 53 49 49 52 56 61 63 64 65 62 61 62 59 65 64 61 57 58 53 59 62
230 211 197 223 290 325 299 340 106 165 231 218 194 194 181 175 222 216 215 199 169 170 173 176 183 187 182 184 176 175 171 170 166 163 150 147 143 146 147 143 139 133 129 130 130 129 129 125 118 111 109 117 122 125 120 123 128 128 134 142 146 150 149 146 138 131 123 112 108 103 97 89 81 75 67 64 51 50 57 54 55 59 62 63 63 64 61 62 64 64 63 64 59 55 57 63 66
228 213 133 160 248 132 255 160 213 218 207 213 192 172 207 222 195 186 202 185 187 187 179 178 180 181 180 182 175 170 168 166 165 157 142 146 149 153 150 142 139 140 135 134 134 131 124 122 123 120 116 114 113 113 111 111 114 126 139 142 142 143 138 133 128 120 122 115 112 106 97 93 90 81 74 78 62 59 60 57 55 58 60 61 64 59 56 60 64 65 67 67 64 61 60 66 69
214 213 162 166 184 176 210 228 217 308 262 263 173 185 222 236 270 198 188 197 188 184 184 180 174 176 176 178 170 164 164 163 158 152 151 149 148 156 148 143 143 139 135 135 136 131 126 125 126 119 119 114 111 104 105 100 97 101 106 113 120 120 119 120 118 118 116 110 109 106 104 103 99 101 96 89 87 72 64 66 67 66 66 65 64 61 57 58 66 72 71 70 65 61 61 62 65
212 210 159 178 140 165 203 192 195 200 209 199 153 134 234 157 243 187 195 190 182 181 175 175 173 165 162 163 158 154 157 161 156 155 154 152 150 150 145 144 142 140 137 137 136 130 126 126 125 120 116 112 106 105 100 98 99 100 101 103 105 108 109 107 108 113 113 111 110 110 108 104 101 102 101 102 83 76 70 66 65 66 63 65 63 59 58 60 64 68 68 71 67 63 64 67 66
226 187 95 136 214 137 179 200 154 214 134 97 156 175 198 167 314 35 127 120 146 149 148 149 152 149 155 162 167 164 163 165 159 152 150 150 146 143 140 144 139 141 140 139 135 134 130 128 122 118 120 118 111 105 101 108 106 105 104 104 105 108 109 105 102 100 100 108 115 114 112 107 104 105 100 94 84 84 76 70 66 65 66 66 66 67 65 64 66 72 69 67 66 60 70 71 74
194 160 210 210 170 126 79 329 272 100 78 175 197 68 330 7 24 39 123 130 138 138 148 156 154 157 162 166 163 163 168 169 159 153 151 151 146 147 148 146 143 143 142 142 140 139 134 128 123 118 113 108 107 107 112 112 112 105 102 104 107 108 111 113 116 114 114 113 112 110 111 112 106 99 101 96 92 83 79 76 71 65 60 60 63 64 69 71 71 73 73 72 68 60 71 77 79
141 194 214 172 134 123 137 185 312 67 141 202 107 153 207 70 261 135 118 136 146 153 162 164 161 160 164 165 165 167 171 168 156 147 148 152 152 150 151 149 150 147 143 138 134 131 129 128 130 126 124 119 116 116 117 119 116 111 112 110 110 113 114 115 116 118 118 112 104 104 104 103 108 102 90 87 81 73 66 67 69 64 59 56 56 55 64 70 73 73 76 73 74 68 69 73 76
179 205 149 173 191 238 291 107 184 142 180 205 330 193 189 187 153 150 150 153 167 162 161 161 171 173 168 164 167 167 163 154 152 152 155 157 155 153 153 151 150 145 140 132 129 128 125 124 126 127 128 127 126 120 117 115 117 119 120 120 118 113 112 113 114 113 112 107 107 107 107 109 90 81 88 87 83 78 76 67 68 65 59 57 53 50 52 57 64 68 62 66 64 70 74 76 75
232 85 169 165 125 164 150 203 176 124 221 108 279 19 233 220 166 171 164 169 169 165 168 182 181 177 169 167 167 167 165 160 159 159 161 158 154 153 153 152 150 149 142 136 132 129 128 129 126 122 117 118 119 120 123 122 125 121 119 114 111 114 117 116 118 114 106 106 109 107 106 92 97 95 92 90 85 83 77 74 67 67 63 58 53 45 43 48 56 62 65 67 66 76 77 82 78
205 173 205 184 208 208 146 125 147 171 171 172 143 262 278 251 184 168 170 171 171 172 181 183 180 176 172 169 168 167 164 162 163 163 160 156 151 152 150 148 147 143 135 133 134 135 134 132 130 133 131 130 126 128 124 129 127 123 120 117 118 116 113 111 106 105 105 107 107 101 94 102 93 90 93 86 85 82 79 78 72 65 64 58 53 47 40 45 46 50 62 74 73 77 82 81 83
153 165 202 192 170 154 172 248 345 118 106 183 132 225 264 255 173 178 167 176 177 183 177 177 177 174 170 173 170 165 163 164 162 161 157 155 151 151 147 141 145 143 142 138 137 135 138 139 140 136 131 135 135 131 131 131 125 122 118 118 115 114 112 107 106 104 106 105 100 96 103 94 91 92 91 89 87 83 81 78 75 66 63 58 54 51 42 46 45 42 42 72 80 77 80 84 83